2014 GZ44

Japanese version
Home page
Updated on June 15, 2014

---------------------------------------------------------------------

* Profile

* Orbital Elements

The following orbital elements are taken from MPO292244

Epoch 2014 Mar. 24.0 TT = JDT 2456740.5                 MPC
M   0.53463              (2000.0)            P               Q
n   0.07311310     Peri.  234.19969     -0.94610161     -0.05551021
a   5.6642086      Node   300.55807     +0.23030204     -0.80800242
e   0.5832010      Incl.   21.74893     -0.22771189     -0.58655836
P  13.5            H   16.9           G   0.15
From 20 observations 2014 Apr. 5-9.

* Magnitudes Graph

        H = 16.9  G = 0.15

---------------------------------------------------------------------

The orbital elements are published at the MPC Ephemerides and Orbital Elements.
The magnitudes graphs are made with Comet for Windows.

---------------------------------------------------------------------

Copyright(C) Seiichi Yoshida (comet@aerith.net). All rights reserved.